When you browse on this site, cookies collect data to enhance your experience and personalize the content and advertising you see.
Visit our Privacy Policy to learn more. By continuing to use the site, you agree to this use of cookies and data.
  • în România
  • Lista ţărilor
  • Pe 7 zile
  • Temperatura apei
  • Hartă satelitară
  • Meteo pe hartă
  • Widget-uri
  • user-avatar
    Intrare

    Meteo pe oră la Las-Vegas

    Astăzi, 23 Februarie, Sâmbătă

    Timp Temperatura Precipitaţii Vânt Presiune Umiditate
    00:00 +4°C° 0 mm 2 m/s 711 mmHg 40%
    01:00 +4°C° 0 mm 2 m/s 712 mmHg 39%
    02:00 +3°C° 0 mm 2 m/s 712 mmHg 40%
    03:00 +4°C° 0 mm 1 m/s 712 mmHg 40%
    04:00 +4°C° 0 mm 1 m/s 713 mmHg 43%
    05:00 +4°C° 0 mm 1 m/s 713 mmHg 44%
    06:00 +4°C° 0 mm 1 m/s 714 mmHg 45%
    07:00 +3°C° 0 mm 0 m/s 714 mmHg 46%
    08:00 +5°C° 0 mm 1 m/s 715 mmHg 42%
    09:00 +6°C° 0 mm 1 m/s 715 mmHg 38%
    10:00 +8°C° 0 mm 1 m/s 715 mmHg 34%
    11:00 +9°C° 0 mm 1 m/s 715 mmHg 32%
    12:00 +10°C° 0 mm 1 m/s 715 mmHg 29%
    13:00 +11°C° 0 mm 1 m/s 714 mmHg 27%
    14:00 +11°C° 0 mm 1 m/s 714 mmHg 27%
    15:00 +10°C° 0 mm 2 m/s 714 mmHg 27%
    16:00 +12°C° 0 mm 2 m/s 714 mmHg 27%
    17:00 +11°C° 0 mm 1 m/s 714 mmHg 30%
    18:00 +10°C° 0 mm 1 m/s 714 mmHg 33%
    19:00 +9°C° 0 mm 1 m/s 714 mmHg 36%
    20:00 +8°C° 0 mm 1 m/s 714 mmHg 37%
    21:00 +8°C° 0 mm 1 m/s 714 mmHg 39%
    22:00 +7°C° 0 mm 1 m/s 714 mmHg 40%
    23:00 +7°C° 0 mm 1 m/s 714 mmHg 41%

    Mâine, 24 Februarie, Duminică

    Timp Temperatura Precipitaţii Vânt Presiune Umiditate
    00:00 +7°C° 0 mm 1 m/s 714 mmHg 42%
    01:00 +6°C° 0 mm 1 m/s 714 mmHg 43%
    02:00 +6°C° 0 mm 1 m/s 714 mmHg 44%
    03:00 +6°C° 0 mm 1 m/s 713 mmHg 44%
    04:00 +5°C° 0 mm 1 m/s 713 mmHg 45%
    05:00 +5°C° 0 mm 1 m/s 713 mmHg 45%
    06:00 +5°C° 0 mm 1 m/s 713 mmHg 46%
    07:00 +6°C° 0 mm 1 m/s 713 mmHg 46%
    08:00 +7°C° 0 mm 1 m/s 714 mmHg 41%
    09:00 +9°C° 0 mm 1 m/s 714 mmHg 36%
    10:00 +10°C° 0 mm 1 m/s 714 mmHg 31%
    11:00 +11°C° 0 mm 1 m/s 713 mmHg 29%
    12:00 +12°C° 0 mm 1 m/s 713 mmHg 27%
    13:00 +13°C° 0 mm 1 m/s 712 mmHg 25%
    14:00 +13°C° 0 mm 1 m/s 711 mmHg 24%
    15:00 +13°C° 0 mm 1 m/s 711 mmHg 24%
    16:00 +14°C° 0 mm 1 m/s 710 mmHg 23%
    17:00 +13°C° 0 mm 1 m/s 710 mmHg 27%
    18:00 +12°C° 0 mm 1 m/s 710 mmHg 31%
    19:00 +10°C° 0 mm 0 m/s 710 mmHg 35%
    20:00 +9°C° 0 mm 0 m/s 710 mmHg 36%
    21:00 +9°C° 0 mm 0 m/s 710 mmHg 36%
    22:00 +8°C° 0 mm 0 m/s 710 mmHg 37%
    23:00 +8°C° 0 mm 0 m/s 710 mmHg 37%

    Poimâine, 25 Februarie, Luni

    Timp Temperatura Precipitaţii Vânt Presiune Umiditate
    00:00 +8°C° 0 mm 0 m/s 710 mmHg 37%
    01:00 +7°C° 0 mm 0 m/s 710 mmHg 37%
    02:00 +7°C° 0 mm 0 m/s 709 mmHg 37%
    03:00 +8°C° 0 mm 1 m/s 709 mmHg 36%
    04:00 +8°C° 0 mm 1 m/s 709 mmHg 36%
    05:00 +8°C° 0 mm 1 m/s 709 mmHg 36%
    06:00 +8°C° 0 mm 1 m/s 709 mmHg 36%
    07:00 +8°C° 0 mm 1 m/s 709 mmHg 36%
    08:00 +10°C° 0 mm 1 m/s 710 mmHg 32%
    09:00 +11°C° 0 mm 1 m/s 710 mmHg 28%
    10:00 +13°C° 0 mm 1 m/s 710 mmHg 25%
    11:00 +14°C° 0 mm 2 m/s 710 mmHg 25%
    12:00 +15°C° 0 mm 2 m/s 710 mmHg 25%
    13:00 +16°C° 0 mm 2 m/s 709 mmHg 26%
    14:00 +17°C° 0 mm 2 m/s 709 mmHg 25%
    15:00 +17°C° 0 mm 3 m/s 709 mmHg 24%
    16:00 +18°C° 0 mm 3 m/s 708 mmHg 23%
    17:00 +17°C° 0 mm 3 m/s 708 mmHg 26%
    18:00 +14°C° 0 mm 3 m/s 708 mmHg 29%
    19:00 +13°C° 0 mm 3 m/s 709 mmHg 32%
    20:00 +13°C° 0 mm 3 m/s 709 mmHg 34%
    21:00 +12°C° 0 mm 3 m/s 709 mmHg 37%
    22:00 +11°C° 0 mm 3 m/s 709 mmHg 39%
    23:00 +11°C° 0 mm 3 m/s 709 mmHg 40%

    26 Februarie, Marţi

    Timp Temperatura Precipitaţii Vânt Presiune Umiditate
    00:00 +10°C° 0 mm 3 m/s 709 mmHg 42%
    01:00 +10°C° 0 mm 3 m/s 709 mmHg 43%
    02:00 +10°C° 0 mm 2 m/s 708 mmHg 44%
    03:00 +9°C° 0 mm 2 m/s 708 mmHg 44%
    04:00 +9°C° 0 mm 2 m/s 708 mmHg 45%
    05:00 +9°C° 0 mm 2 m/s 708 mmHg 45%
    06:00 +9°C° 0 mm 2 m/s 709 mmHg 44%
    07:00 +9°C° 0 mm 2 m/s 709 mmHg 44%
    08:00 +11°C° 0 mm 3 m/s 710 mmHg 38%
    09:00 +14°C° 0 mm 3 m/s 710 mmHg 32%
    10:00 +17°C° 0 mm 4 m/s 711 mmHg 26%
    11:00 +17°C° 0 mm 5 m/s 710 mmHg 24%
    12:00 +19°C° 0 mm 6 m/s 710 mmHg 22%
    13:00 +21°C° 0 mm 7 m/s 709 mmHg 20%
    14:00 +20°C° 0 mm 7 m/s 709 mmHg 20%
    15:00 +20°C° 0 mm 6 m/s 709 mmHg 21%
    16:00 +20°C° 0 mm 6 m/s 708 mmHg 21%
    17:00 +19°C° 0 mm 6 m/s 708 mmHg 24%
    18:00 +17°C° 0 mm 5 m/s 709 mmHg 27%
    19:00 +15°C° 0 mm 4 m/s 709 mmHg 30%
    20:00 +15°C° 0 mm 4 m/s 709 mmHg 32%
    21:00 +14°C° 0 mm 3 m/s 709 mmHg 34%
    22:00 +13°C° 0 mm 3 m/s 710 mmHg 36%
    23:00 +13°C° 0 mm 3 m/s 710 mmHg 37%

    27 Februarie, Miercuri

    Timp Temperatura Precipitaţii Vânt Presiune Umiditate
    00:00 +12°C° 0 mm 3 m/s 710 mmHg 38%
    01:00 +13°C° 0 mm 2 m/s 710 mmHg 39%
    02:00 +12°C° 0 mm 2 m/s 709 mmHg 40%
    03:00 +12°C° 0 mm 2 m/s 709 mmHg 40%
    04:00 +12°C° 0 mm 2 m/s 709 mmHg 41%
    05:00 +12°C° 0 mm 2 m/s 709 mmHg 41%
    06:00 +12°C° 0 mm 2 m/s 709 mmHg 42%
    07:00 +12°C° 0 mm 2 m/s 710 mmHg 42%
    08:00 +13°C° 0 mm 3 m/s 710 mmHg 37%
    09:00 +16°C° 0 mm 3 m/s 711 mmHg 32%
    10:00 +18°C° 0 mm 4 m/s 711 mmHg 27%
    11:00 +19°C° 0 mm 5 m/s 711 mmHg 27%
    12:00 +20°C° 0 mm 5 m/s 711 mmHg 26%
    13:00 +22°C° 0 mm 6 m/s 710 mmHg 26%
    14:00 +21°C° 0 mm 6 m/s 710 mmHg 27%
    15:00 +21°C° 0 mm 6 m/s 710 mmHg 28%
    16:00 +21°C° 0 mm 6 m/s 709 mmHg 30%
    17:00 +20°C° 0 mm 5 m/s 709 mmHg 34%
    18:00 +19°C° 0 mm 5 m/s 709 mmHg 38%
    19:00 +18°C° 0 mm 4 m/s 709 mmHg 42%
    20:00 +17°C° 0 mm 4 m/s 709 mmHg 47%
    21:00 +16°C° 0 mm 5 m/s 710 mmHg 52%
    22:00 +15°C° 0 mm 5 m/s 710 mmHg 57%
    23:00 +14°C° 0 mm 5 m/s 710 mmHg 59%

    28 Februarie, Joi

    Timp Temperatura Precipitaţii Vânt Presiune Umiditate
    00:00 +14°C° 0 mm 5 m/s 709 mmHg 61%
    01:00 +13°C° 0 mm 5 m/s 709 mmHg 63%
    02:00 +13°C° 0 mm 4 m/s 709 mmHg 65%
    03:00 +12°C° 0 mm 4 m/s 709 mmHg 66%
    04:00 +12°C° 0 mm 3 m/s 709 mmHg 68%
    05:00 +12°C° 0 mm 3 m/s 709 mmHg 69%
    06:00 +12°C° 0 mm 2 m/s 709 mmHg 69%
    07:00 +12°C° 0 mm 2 m/s 710 mmHg 70%
    08:00 +14°C° 0 mm 2 m/s 710 mmHg 63%
    09:00 +16°C° 0 mm 2 m/s 710 mmHg 55%
    10:00 +17°C° 0 mm 2 m/s 710 mmHg 48%
    11:00 +18°C° 0 mm 3 m/s 710 mmHg 43%
    12:00 +19°C° 0 mm 3 m/s 709 mmHg 38%
    13:00 +21°C° 0 mm 4 m/s 709 mmHg 33%
    14:00 +21°C° 0 mm 4 m/s 709 mmHg 31%
    15:00 +21°C° 0 mm 4 m/s 708 mmHg 28%
    16:00 +22°C° 0 mm 4 m/s 708 mmHg 26%
    17:00 +21°C° 0 mm 4 m/s 708 mmHg 29%
    18:00 +20°C° 0 mm 4 m/s 707 mmHg 31%
    19:00 +19°C° 0 mm 4 m/s 707 mmHg 34%
    20:00 +18°C° 0 mm 4 m/s 707 mmHg 36%
    21:00 +17°C° 0 mm 4 m/s 707 mmHg 38%
    22:00 +17°C° 0 mm 4 m/s 707 mmHg 39%
    23:00 +15°C° 0 mm 4 m/s 707 mmHg 43%
    Arată mai mult